This is the latest recevied weather packets stored in our database for station/object K5GTX. If no packets are shown the sender has not sent any weather packets the latest 10 day(s).
| Time | Temp. | Humidity | Pressure | Rain* | Wind** | Luminosity | Snow |
|---|---|---|---|---|---|---|---|
| 1777832603 | 26.67° C | 99% | 1025.9 hPa | 0 mm | - | 629 W/m² | - |
| 1777832300 | 26.11° C | 99% | 1026.1 hPa | 0 mm | - | 717 W/m² | - |
| 1777831997 | 26.11° C | 99% | 1026 hPa | 0 mm | - | 728 W/m² | - |
| 1777831693 | 26.67° C | 99% | 1026 hPa | 0 mm | - | 713 W/m² | - |
| 1777831391 | 27.22° C | 99% | 1026.5 hPa | 0 mm | - | 619 W/m² | - |
| 1777831087 | 26.11° C | 99% | 1026.5 hPa | 0 mm | - | 722 W/m² | - |
| 1777830786 | 26.67° C | 99% | 1026.5 hPa | 0 mm | - | 614 W/m² | - |
| 1777830480 | 25.56° C | 99% | 1026.7 hPa | 0 mm | - | 730 W/m² | - |
| 1777830179 | 26.11° C | 99% | 1026.7 hPa | 0 mm | - | 686 W/m² | - |
| 1777829874 | 26.67° C | 99% | 1026.8 hPa | 0 mm | - | 730 W/m² | - |
| 1777829570 | 26.11° C | 99% | 1027.2 hPa | 0 mm | - | 672 W/m² | - |
| 1777829267 | 25.56° C | 99% | 1027.2 hPa | 0 mm | - | 607 W/m² | - |
| 1777828964 | 25.56° C | 99% | 1027.2 hPa | 0 mm | - | 629 W/m² | - |
| 1777828661 | 25.56° C | 99% | 1026.9 hPa | 0 mm | - | 741 W/m² | - |
| 1777828358 | 25° C | 99% | 1026.9 hPa | 0 mm | - | 618 W/m² | - |
| 1777828055 | 25° C | 99% | 1027.2 hPa | 0 mm | - | 756 W/m² | - |
| 1777827752 | 25° C | 99% | 1027.3 hPa | 0 mm | - | 557 W/m² | - |
| 1777827449 | 25° C | 99% | 1027.5 hPa | 0 mm | - | 707 W/m² | - |
| 1777827146 | 25° C | 99% | 1027.4 hPa | 0 mm | - | 685 W/m² | - |
| 1777826842 | 25° C | 99% | 1027.4 hPa | 0 mm | - | 732 W/m² | - |
| 1777826540 | 24.44° C | 99% | 1027.3 hPa | 0 mm | - | 656 W/m² | - |
| 1777826235 | 24.44° C | 99% | 1027.4 hPa | 0 mm | - | 620 W/m² | - |
| 1777825934 | 24.44° C | 99% | 1027.7 hPa | 0 mm | - | 526 W/m² | - |
| 1777825630 | 24.44° C | 99% | 1027.7 hPa | 0 mm | - | 509 W/m² | - |
| 1777825329 | 24.44° C | 99% | 1027.6 hPa | 0 mm | - | 746 W/m² | - |
* Rain latest hour (hover to see other rain measurements)
** Current wind speed in m/s (hover to see current wind gust speed)